Regional Weather Roundup
Issued by NWS

Home | Current Version | Previous Version | Graphics & Text | Print | Product List | Glossary On
Versions: 1 2 3 4 5 6 7 8 9 10 11 12 13 14 15 16 17 18 19 20 21 22 23 24 25 26 27 28 29 30 31 32 33 34 35 36 37 38 39 40 41 42 43 44 45 46 47 48 49 50
000
ASUS43 KLMK 261510
RWRKY
KENTUCKY REGIONAL WEATHER ROUNDUP
NATIONAL WEATHER SERVICE LOUISVILLE KY
1100 AM EDT FRI MAY 26 2017

NOTE "FAIR" INDICATES FEW OR NO CLOUDS BELOW 12,000 FEET
WITH NO SIGNIFICANT WEATHER AND/OR OBSTRUCTIONS TO VISIBILITY.

KYZ001>023-026-027-061>063-070>075-261600-
WESTERN AND SOUTH CENTRAL KENTUCKY

CITY           SKY/WX    TMP DP  RH WIND       PRES   REMARKS
PADUCAH        PTSUNNY   72  58  61 S6        29.88F
HENDERSON      MOSUNNY   71  60  68 S9        29.92F
OWENSBORO      CLOUDY    72  59  63 S9        29.94R
HOPKINSVILLE   MOSUNNY   72  60  67 S10       29.96R
BOWLING GREEN  CLOUDY    73  59  61 S9        29.98R
GLASGOW        SUNNY     72  58  61 SW8       29.99R
$$

KYZ024-025-028>034-038-045-046-053-261600-
NORTH CENTRAL KENTUCKY

CITY           SKY/WX    TMP DP  RH WIND       PRES   REMARKS
LOUISVILLE/SDF CLOUDY    72  58  61 W12       29.95S
LOUISVILLE/LOU CLOUDY    72  58  61 SW9       29.96R
FORT KNOX      SUNNY     72  58  61 SW7       29.95R
$$

KYZ035>037-039>044-047>052-055>060-089>105-261600-
NORTHEAST KENTUCKY

CITY           SKY/WX    TMP DP  RH WIND       PRES   REMARKS
LEXINGTON      SUNNY     70  56  61 SW10      29.98R
COVINGTON      PTSUNNY   68  58  70 SW6       29.93F
FRANKFORT      SUNNY     71  56  58 SW9       29.95S
$$

KYZ054-064>069-076>088-106>120-261600-
SOUTHEAST KENTUCKY

CITY           SKY/WX    TMP DP  RH WIND       PRES   REMARKS
JACKSON        SUNNY     68  58  70 CALM      29.99S
LONDON         SUNNY     69  53  56 W12       30.01S
SOMERSET       SUNNY     68  54  60 W10       30.02S
MIDDLESBORO    SUNNY     71  53  51 W7        30.02S
MONTICELLO     SUNNY     72  56  57 W17G25    30.02S
$$





USA.gov is the U.S. government's official web portal to all federal, state and local government web resources and services.